| time (UTC) | temp C | wind direction | speed KPH | gust KPH | rain 1hr cm | rain 24hr cm | rain mn cm | humidity % | barometer mb |
| 20260502163145 | 20 | 236 | 3.2 | 12.9 | 0.00 | 3.56 | 0.00 | 64 | 1019.0 |
| 20260502161541 | 20 | 112 | 3.2 | 11.3 | 0.00 | 3.56 | 0.00 | 64 | 1019.0 |
| 20260502151531 | 17 | 282 | 6.4 | 16.1 | 0.00 | 3.81 | 0.00 | 74 | 1018.7 |
| 20260502123111 | 11 | 241 | 0.0 | 4.8 | 0.00 | 5.41 | 4.34 | 68 | 1017.0 |
| 20260502121501 | 11 | 143 | 0.0 | 1.6 | 0.00 | 5.41 | 4.34 | 68 | 1016.9 |
| 20260502120114 | 11 | 193 | 0.0 | 3.2 | 0.00 | 5.41 | 4.34 | 69 | 1016.7 |
| 20260502114603 | 11 | 212 | 0.0 | 4.8 | 0.00 | 6.15 | 4.34 | 69 | 1016.4 |
| 20260502113056 | 11 | 172 | 0.0 | 3.2 | 0.00 | 6.15 | 4.34 | 70 | 1016.2 |
| 20260502111559 | 11 | 179 | 0.0 | 4.8 | 0.00 | 6.15 | 4.34 | 70 | 1016.1 |
| 20260502110053 | 11 | 236 | 1.6 | 4.8 | 0.00 | 6.15 | 4.34 | 71 | 1016.1 |
| 20260502104554 | 11 | 181 | 0.0 | 6.4 | 0.00 | 7.06 | 4.34 | 72 | 1015.9 |
| 20260502103050 | 12 | 217 | 1.6 | 4.8 | 0.00 | 7.06 | 4.34 | 73 | 1015.7 |
| 20260502101554 | 12 | 176 | 0.0 | 4.8 | 0.00 | 7.06 | 4.34 | 74 | 1015.6 |
| 20260502100109 | 12 | 168 | 0.0 | 4.8 | 0.00 | 7.06 | 4.34 | 74 | 1015.2 |
| 20260502070038 | 12 | 228 | 1.6 | 9.7 | 0.00 | 11.71 | 4.34 | 64 | 1014.3 |
| 20260502064540 | 12 | 112 | 1.6 | 9.7 | 0.00 | 11.73 | 4.34 | 64 | 1014.2 |
| 20260502063031 | 12 | 244 | 0.0 | 6.4 | 0.00 | 11.73 | 4.34 | 64 | 1014.0 |
| 20260502061531 | 12 | 282 | 1.6 | 8.0 | 0.00 | 11.73 | 4.34 | 64 | 1013.9 |
| 20260502060031 | 12 | 210 | 1.6 | 11.3 | 0.00 | 11.73 | 4.34 | 64 | 1013.9 |
| 20260502054530 | 12 | 267 | 1.6 | 14.5 | 0.00 | 12.93 | 4.34 | 64 | 1013.9 |
| 20260502053029 | 12 | 221 | 3.2 | 12.9 | 0.00 | 12.93 | 4.34 | 64 | 1013.7 |
| 20260502051543 | 12 | 323 | 1.6 | 12.9 | 0.00 | 12.93 | 4.34 | 64 | 1013.7 |
| 20260502050023 | 12 | 231 | 6.4 | 16.1 | 0.00 | 12.93 | 4.34 | 64 | 1013.6 |
| 20260502044521 | 13 | 262 | 3.2 | 14.5 | 0.00 | 13.92 | 4.34 | 64 | 1013.5 |
| 20260502043020 | 13 | 269 | 3.2 | 12.9 | 0.00 | 13.92 | 4.34 | 64 | 1013.5 |
| 20260502041521 | 13 | 115 | 3.2 | 17.7 | 0.00 | 13.92 | 4.34 | 64 | 1013.3 |
| 20260502040019 | 13 | 289 | 4.8 | 14.5 | 0.00 | 13.92 | 4.34 | 64 | 1013.4 |
| 20260502034535 | 13 | 319 | 4.8 | 12.9 | 0.00 | 13.92 | 4.34 | 64 | 1013.7 |
| 20260502033024 | 12 | 168 | 4.8 | 12.9 | 0.00 | 13.92 | 4.34 | 64 | 1013.3 |
| 20260502031517 | 12 | 261 | 3.2 | 11.3 | 0.00 | 13.92 | 4.34 | 64 | 1013.1 |
| 20260502030015 | 13 | 232 | 3.2 | 16.1 | 0.05 | 13.92 | 4.34 | 64 | 1012.7 |
| 20260502024511 | 13 | 307 | 1.6 | 14.5 | 0.10 | 13.92 | 4.34 | 64 | 1012.6 |
| 20260502023009 | 13 | 250 | 3.2 | 11.3 | 0.15 | 13.92 | 4.34 | 63 | 1011.9 |
| 20260502021508 | 13 | 110 | 4.8 | 14.5 | 0.25 | 13.92 | 4.34 | 63 | 1011.8 |
| 20260502020006 | 13 | 103 | 3.2 | 17.7 | 0.43 | 13.89 | 4.32 | 63 | 1011.4 |
| 20260502014504 | 13 | 77 | 4.8 | 14.5 | 0.43 | 13.84 | 4.27 | 63 | 1011.7 |
| 20260502013001 | 14 | 234 | 3.2 | 12.9 | 0.41 | 13.77 | 4.19 | 63 | 1011.3 |
| 20260502011505 | 14 | 285 | 4.8 | 16.1 | 0.36 | 13.69 | 4.11 | 63 | 1010.8 |
| 20260502010002 | 15 | 298 | 3.2 | 8.0 | 0.20 | 13.49 | 3.91 | 62 | 1011.1 |
| 20260502004603 | 15 | 253 | 0.0 | 12.9 | 0.25 | 13.41 | 3.84 | 62 | 1011.6 |
| 20260502003058 | 15 | 175 | 1.6 | 11.3 | 0.43 | 13.39 | 3.81 | 62 | 1009.7 |
| 20260502001552 | 15 | 214 | 3.2 | 12.9 | 0.38 | 13.34 | 3.76 | 62 | 1009.9 |
| 20260502000051 | 15 | 269 | 1.6 | 12.9 | 0.51 | 13.31 | 3.73 | 62 | 1010.5 |
| 20260501234555 | 15 | 252 | 0.0 | 9.7 | 0.64 | 13.18 | 3.61 | 62 | 1010.8 |
| 20260501233048 | 15 | 219 | 3.2 | 16.1 | 0.41 | 12.93 | 3.38 | 62 | 1009.7 |
| 20260501231555 | 15 | 34 | 0.0 | 9.7 | 0.41 | 12.93 | 3.38 | 62 | 1009.0 |
| 20260501230045 | 15 | 289 | 1.6 | 11.3 | 0.33 | 12.88 | 3.30 | 62 | 1008.6 |
| 20260501224544 | 15 | 238 | 1.6 | 19.3 | 0.03 | 12.55 | 2.97 | 62 | 1009.6 |
| 20260501223042 | 15 | 42 | 6.4 | 14.5 | 0.08 | 12.55 | 2.97 | 62 | 1008.0 |
| 20260501221542 | 16 | 250 | 3.2 | 14.5 | 0.13 | 12.55 | 2.97 | 62 | 1007.5 |
| 20260501220043 | 16 | 259 | 4.8 | 11.3 | 0.15 | 12.55 | 2.97 | 62 | 1008.2 |
| 20260501214554 | 16 | 300 | 3.2 | 11.3 | 0.20 | 12.55 | 2.97 | 62 | 1008.8 |
| 20260501213048 | 16 | 88 | 3.2 | 12.9 | 0.23 | 12.47 | 2.87 | 62 | 1008.9 |
| 20260501211539 | 16 | 288 | 3.2 | 9.7 | 0.23 | 12.40 | 2.84 | 61 | 1008.5 |
| 20260501210039 | 16 | 197 | 1.6 | 14.5 | 0.36 | 12.40 | 2.82 | 61 | 1008.0 |
| 20260501204538 | 16 | 117 | 1.6 | 12.9 | 0.48 | 12.37 | 2.79 | 61 | 1007.8 |
| 20260501203037 | 16 | 241 | 1.6 | 9.7 | 0.36 | 12.24 | 2.67 | 61 | 1008.5 |
| 20260501201542 | 16 | 142 | 4.8 | 12.9 | 0.33 | 12.19 | 2.64 | 61 | 1007.0 |
| 20260501200035 | 17 | 200 | 4.8 | 12.9 | 0.28 | 12.09 | 2.51 | 61 | 1006.6 |
| 20260501194537 | 17 | 224 | 3.2 | 11.3 | 0.20 | 11.91 | 2.34 | 61 | 1008.1 |
| 20260501193034 | 17 | 87 | 1.6 | 8.0 | 0.41 | 11.89 | 2.31 | 61 | 1007.3 |
| 20260501191533 | 17 | 265 | 1.6 | 6.4 | 0.46 | 11.89 | 2.31 | 61 | 1007.4 |
| 20260501190033 | 17 | 208 | 0.0 | 3.2 | 0.46 | 11.81 | 2.24 | 61 | 1007.8 |
| 20260501184532 | 16 | 214 | 0.0 | 6.4 | 0.48 | 11.73 | 2.16 | 61 | 1007.4 |
| 20260501183032 | 16 | 247 | 0.0 | 9.7 | 0.28 | 11.46 | 1.91 | 61 | 1007.3 |
| 20260501181534 | 16 | 249 | 1.6 | 12.9 | 0.28 | 11.43 | 1.85 | 61 | 1006.2 |
| 20260501180037 | 16 | 243 | 4.8 | 17.7 | 0.25 | 11.38 | 1.80 | 61 | 1005.8 |
| 20260501174526 | 16 | 184 | 3.2 | 12.9 | 0.18 | 11.28 | 1.70 | 61 | 1007.3 |